Location: Burtsch�tz
(51.0528°N, 12.1764°E)
Time: 06:45:53
(UTC+00:00)

USA 305 - Pass Details

Date: 29 October 2020
Orbit: 568 x 577 km, 54.0° (Epoch: 30 November)

Event Time Altitude Azimuth Distance (km) Brightness Sun altitude
Rises 17:48:59 0° 293° (WNW) 2,789 7.7 -19.1°
Reaches altitude 10° 17:51:20 10° 286° (WNW) 1,886 6.7 -19.5°
Maximum altitude 17:55:22 41° 216° (SW) 834 3.9 -20.1°
Enters shadow 17:57:19 25° 162° (SSE) 1,164 4.2 -20.4°
